This is the latest recevied weather packets stored in our database for station/object CE4TQY-10. If no packets are shown the sender has not sent any weather packets the latest 10 day(s).
| Time | Temp. | Humidity | Pressure | Rain* | Wind** | Luminosity | Snow |
|---|---|---|---|---|---|---|---|
| 1778115254 | 11.67° C | 88% | 1023.8 hPa | - | - | - | - |
| 1778115222 | 11.67° C | 88% | 1023.8 hPa | - | - | - | - |
| 1778114321 | 11.67° C | 88% | 1023.6 hPa | - | - | - | - |
| 1778113420 | 11.67° C | 88% | 1023.6 hPa | - | - | - | - |
| 1778112519 | 11.67° C | 88% | 1023.7 hPa | - | - | - | - |
| 1778111618 | 11.67° C | 88% | 1023.3 hPa | - | - | - | - |
| 1778110717 | 11.67° C | 88% | 1022.9 hPa | - | - | - | - |
| 1778109815 | 11.67° C | 88% | 1023 hPa | - | - | - | - |
| 1778108915 | 12.22° C | 88% | 1022.8 hPa | - | - | - | - |
| 1778108013 | 12.22° C | 88% | 1022.8 hPa | - | - | - | - |
| 1778107113 | 12.22° C | 88% | 1022.8 hPa | - | - | - | - |
| 1778106212 | 12.22° C | 88% | 1022.4 hPa | - | - | - | - |
| 1778105311 | 12.22° C | 88% | 1022.2 hPa | - | - | - | - |
| 1778104410 | 12.22° C | 88% | 1022.1 hPa | - | - | - | - |
| 1778103509 | 12.22° C | 88% | 1021.8 hPa | - | - | - | - |
| 1778102608 | 12.78° C | 88% | 1021.6 hPa | - | - | - | - |
| 1778101707 | 12.78° C | 88% | 1021.2 hPa | - | - | - | - |
| 1778100807 | 13.33° C | 88% | 1021.2 hPa | - | - | - | - |
| 1778099905 | 13.33° C | 88% | 1021.2 hPa | - | - | - | - |
| 1778099004 | 14.44° C | 86% | 1021.1 hPa | - | - | - | - |
| 1778098103 | 14.44° C | 86% | 1020.9 hPa | - | - | - | - |
| 1778097202 | 15° C | 86% | 1020.8 hPa | - | - | - | - |
| 1778096301 | 15° C | 86% | 1021.1 hPa | - | - | - | - |
| 1778095400 | 14.44° C | 86% | 1021 hPa | - | - | - | - |
| 1778094500 | 14.44° C | 86% | 1020.9 hPa | - | - | - | - |
* Rain since midnight (hover to see other rain measurements)
** Current wind speed in m/s (hover to see current wind gust speed)